sat.trackr.live / text

‹ back to catalog

STARLINK-36137

NORAD 67033 · 2025-294D

PAYLOAD ACTIVE UNKNOWN

§ Identity

Operator
Country
US
Launch date
2025-12-11
Launch site
AFETR
Launch vehicle
Mass (kg)
RCS (m²)

Purposes: comms

External: N2YO · Heavens-Above · Gunter

§ Orbital elements

Epoch: 2026-05-25T04:41:24.059040Z

Period
94.27 min
Inclination
43.0055°
Eccentricity
0.0000983
Mean motion
15.27591066 rev/d
Perigee alt
482.3 km
Apogee alt
483.7 km
Semi-major
6,861.2 km
B*
6.4280e-4
RAAN
325.6830°
Arg perigee
286.1104°
Mean anomaly
73.9639°
Rev number
2,650

§ Raw data

STARLINK-361371 67033U 25294D   26145.19541735  .00017474  00000+0  64280-3 0  99992 67033  43.0055 325.6830 0000983 286.1104  73.9639 15.27591066 26509

JSON: /api/v1/satellites/67033 · /tle

For live sub-satellite position, see the globe view (requires WebGL).

§ Visibility from observer

Set your observer location to see the next 7 days of passes ≥ 10°. The values pass through the URL so the page stays shareable.

No JS? Fill the form by hand. The geolocation button needs JavaScript.